GW3593 Weather Reports


time (UTC)temp
C
wind
direction
speed
KPH
gust
KPH
rain 1hr
cm
rain 24hr
cm
rain mn
cm
humidity
%
barometer
mb
20260507010433 12 103 0.0 0.0 0.00 2.54 2.54 99 1017.3
20260507005930 12 136 0.0 0.0 0.00 2.54 2.54 99 1017.4
20260507005427 12 136 0.0 0.0 0.00 2.54 2.54 99 1017.5
20260507004923 12 136 0.0 0.0 0.00 2.54 2.54 99 1017.2
20260507004420 12 136 0.0 0.0 0.00 2.54 2.54 99 1017.5
20260507003918 11 129 0.0 0.0 0.00 2.54 2.54 99 1017.0
20260507003412 11 128 0.0 0.0 0.00 2.54 2.54 99 1016.8
20260507002908 12 101 0.0 1.6 0.00 2.54 2.54 99 1016.9
20260507002404 11 119 0.0 0.0 0.13 2.54 2.54 99 1017.2
20260507001902 12 123 0.0 0.0 0.13 2.54 2.54 99 1017.1
20260507001358 12 100 0.0 1.6 0.00 2.51 2.51 99 1016.9
20260507000856 11 111 0.0 1.6 0.00 2.51 2.51 99 1016.8
20260507000350 12 110 0.0 1.6 0.00 2.51 2.51 99 1016.8
20260506235847 11 132 1.6 1.6 0.00 2.51 2.51 99 1017.2
20260506235344 12 225 1.6 3.2 0.00 2.51 2.51 99 1017.0
20260506234840 11 112 0.0 1.6 0.00 2.51 2.51 99 1016.3
20260506234338 11 161 0.0 1.6 0.00 2.51 2.51 99 1016.2
20260506233836 11 120 0.0 0.0 0.00 2.51 2.51 99 1015.7
20260506233331 11 88 0.0 1.6 0.00 2.51 2.51 99 1015.7
20260506232828 11 67 0.0 1.6 0.00 2.51 2.51 99 1015.6
20260506232324 11 95 0.0 1.6 0.00 2.51 2.51 99 1016.4
20260506231820 11 71 0.0 1.6 0.00 2.51 2.51 99 1016.4
20260506231319 11 197 0.0 1.6 0.00 2.51 2.51 99 1016.6
20260506230816 11 29 0.0 1.6 0.00 2.51 2.51 99 1016.4
20260506230312 11 286 4.8 4.8 0.00 2.51 2.51 99 1016.3
20260506225808 11 165 1.6 3.2 0.00 2.51 2.51 99 1016.3
20260506225306 11 52 1.6 1.6 0.00 2.51 2.51 99 1016.4
20260506224803 11 105 0.0 1.6 0.00 2.51 2.51 99 1016.5
20260506224300 11 130 0.0 0.0 0.00 2.51 2.51 99 1016.8
20260506223756 11 94 0.0 3.2 0.00 2.51 2.51 99 1016.8
20260506223251 11 123 0.0 1.6 0.00 2.51 2.51 99 1017.6
20260506222748 11 133 0.0 1.6 0.00 2.51 2.51 99 1017.6
20260506222244 11 132 1.6 3.2 0.00 2.51 2.51 99 1016.8
20260506221742 11 263 3.2 4.8 0.00 2.51 2.51 99 1016.8
20260506221240 11 320 3.2 4.8 0.00 2.51 2.51 99 1016.8
20260506220737 11 168 0.0 1.6 0.00 2.51 2.51 99 1017.3
20260506220232 11 21 0.0 1.6 0.00 2.51 2.51 99 1017.2
20260506215729 11 227 0.0 1.6 0.00 2.51 2.51 99 1017.3
20260506215224 11 128 0.0 1.6 0.00 2.51 2.51 99 1017.1
20260506214721 11 130 0.0 1.6 0.00 2.51 2.51 99 1017.3
20260506214218 11 84 0.0 0.0 0.00 2.51 2.51 99 1017.4
20260506213716 12 163 1.6 1.6 0.00 2.51 2.51 99 1017.0
20260506213214 12 114 0.0 1.6 0.18 2.51 2.51 99 1016.9
20260506212711 12 128 0.0 1.6 0.18 2.51 2.51 99 1017.1
20260506212206 12 123 0.0 1.6 0.00 2.49 2.49 99 1017.4
20260506211702 12 112 0.0 1.6 0.00 2.49 2.49 99 1017.7
20260506211158 12 194 1.6 1.6 0.00 2.49 2.49 99 1017.4
20260506210655 12 46 1.6 3.2 0.00 2.49 2.49 99 1017.2
20260506210152 12 81 0.0 1.6 0.00 2.49 2.49 99 1017.0
20260506205650 12 183 0.0 3.2 0.13 2.49 2.49 99 1016.7
20260506205150 12 70 1.6 1.6 0.13 2.49 2.49 99 1016.6
20260506204648 12 188 1.6 3.2 0.00 2.46 2.46 99 1015.9
20260506204144 12 81 1.6 1.6 0.18 2.46 2.46 99 1016.1
20260506203643 12 40 1.6 3.2 0.00 2.44 2.44 99 1015.9
20260506203139 12 103 1.6 3.2 0.18 2.44 2.44 99 1015.5
20260506202637 12 98 1.6 3.2 0.18 2.44 2.44 99 1016.1
20260506202133 12 39 0.0 3.2 0.00 2.41 2.41 99 1016.1
20260506201630 12 221 3.2 3.2 0.00 2.41 2.41 99 1016.4
20260506201127 12 142 0.0 1.6 0.13 2.41 2.41 99 1016.4
20260506200623 12 26 1.6 3.2 0.13 2.41 2.41 99 1016.6
20260506200120 12 110 3.2 3.2 0.00 2.39 2.39 99 1016.4
20260506195617 12 132 1.6 1.6 0.18 2.39 2.39 99 1016.7
20260506195113 12 132 0.0 0.0 0.18 2.39 2.39 99 1016.9
20260506194611 12 221 0.0 1.6 0.00 2.36 2.36 99 1016.8
20260506194107 12 203 1.6 3.2 0.00 2.36 2.36 99 1016.7
20260506193605 12 262 3.2 3.2 0.00 2.36 2.36 99 1016.6
20260506193102 12 95 1.6 1.6 0.00 2.36 2.36 99 1016.5
20260506192559 12 95 0.0 1.6 0.00 2.36 2.36 99 1015.9
20260506192054 12 90 1.6 1.6 0.00 2.36 2.36 99 1016.3
20260506191551 13 17 1.6 3.2 0.00 2.36 2.36 99 1016.3
20260506191047 13 206 1.6 1.6 0.00 2.36 2.36 99 1016.2
20260506190545 13 148 1.6 1.6 0.00 2.36 2.36 99 1016.1
20260506190042 13 302 1.6 1.6 0.00 2.36 2.36 99 1016.5
20260506185539 13 32 1.6 1.6 0.00 2.36 2.36 99 1015.7
20260506185035 13 43 1.6 3.2 0.00 2.36 2.36 99 1015.8
20260506184533 13 68 0.0 1.6 0.00 2.36 2.36 99 1016.1
20260506184030 13 89 0.0 0.0 0.00 2.36 2.36 99 1016.5
20260506183525 13 143 0.0 1.6 0.00 2.36 2.36 99 1016.6
20260506183022 13 153 1.6 1.6 0.00 2.36 2.36 99 1016.8
20260506182520 13 113 0.0 1.6 0.00 2.36 2.36 99 1016.8
20260506182017 13 181 0.0 1.6 0.00 2.36 2.36 99 1016.7
20260506181515 13 114 0.0 1.6 0.13 2.36 2.36 99 1016.4
20260506181011 13 109 1.6 1.6 0.13 2.36 2.36 99 1016.8
20260506180508 13 94 0.0 1.6 0.00 2.34 2.34 99 1016.8
20260506180005 13 120 0.0 1.6 0.00 2.34 2.34 99 1016.8
20260506175501 13 130 0.0 0.0 0.00 2.34 2.34 99 1016.8
20260506174957 13 121 0.0 1.6 0.00 2.34 2.34 99 1016.5
20260506174456 13 309 1.6 3.2 0.00 2.34 2.34 99 1017.0
20260506173952 13 203 3.2 4.8 0.00 2.34 2.34 99 1016.7
20260506173450 13 239 3.2 8.0 0.00 2.34 2.34 99 1016.7
20260506172946 13 121 0.0 1.6 0.00 2.34 2.34 99 1016.1
20260506172444 13 137 1.6 1.6 0.00 2.34 2.34 99 1016.1
20260506171940 13 151 0.0 1.6 0.00 2.34 2.34 99 1016.1
20260506171437 13 177 0.0 1.6 0.00 2.34 2.34 99 1015.9
20260506170935 13 349 0.0 0.0 0.00 2.34 2.34 99 1015.9
20260506170431 13 59 0.0 3.2 0.00 2.34 2.34 99 1015.9
20260506165930 13 159 1.6 1.6 0.00 2.34 2.34 99 1016.4
20260506165428 13 155 0.0 0.0 0.00 2.34 2.34 99 1016.3
20260506164924 13 143 0.0 0.0 0.00 2.34 2.34 99 1016.3
20260506164421 13 134 0.0 0.0 0.00 2.34 2.34 99 1016.1
20260506163919 13 119 1.6 1.6 0.00 2.34 2.34 99 1016.2
20260506163414 13 80 0.0 1.6 0.00 2.34 2.34 99 1015.7
20260506162909 13 63 0.0 1.6 0.00 2.34 2.34 99 1015.5
20260506162407 13 343 1.6 3.2 0.00 2.34 2.34 99 1015.6
20260506161904 13 333 1.6 3.2 0.00 2.34 2.34 99 1015.9
20260506161401 13 98 0.0 1.6 0.00 2.34 2.34 99 1015.5
20260506160859 13 122 0.0 0.0 0.00 2.34 2.34 99 1015.7
20260506160356 13 116 1.6 1.6 0.18 2.34 2.34 99 1016.4
20260506155854 13 164 1.6 1.6 0.18 2.34 2.34 99 1016.9
20260506155350 13 167 0.0 1.6 0.13 2.31 2.31 99 1016.5
20260506153502 13 111 0.0 1.6 0.18 2.29 2.29 99 1016.2
20260506152959 13 110 0.0 1.6 0.18 2.29 2.29 99 1016.2
20260506152456 13 265 0.0 3.2 0.00 2.26 2.26 99 1016.2
20260506151954 13 254 1.6 1.6 0.00 2.26 2.26 99 1016.5
20260506151452 13 139 0.0 0.0 0.00 2.26 2.26 99 1016.2
20260506150949 13 78 0.0 1.6 0.00 2.26 2.26 99 1016.1
20260506150444 13 129 0.0 1.6 0.00 2.26 2.26 99 1015.9
20260506145942 13 203 1.6 3.2 0.00 2.26 2.26 99 1016.1
20260506145438 13 279 0.0 1.6 0.00 2.26 2.26 99 1015.9
20260506144936 13 33 1.6 1.6 0.00 2.26 2.26 99 1015.7
20260506144432 13 159 0.0 1.6 0.00 2.26 2.26 99 1015.7
20260506143931 13 135 0.0 1.6 0.00 2.26 2.26 99 1016.1
20260506143427 13 112 0.0 0.0 0.00 2.26 2.26 99 1015.7
20260506142926 13 56 1.6 1.6 0.00 2.26 2.26 99 1015.6
20260506142423 13 118 0.0 1.6 0.00 2.26 2.26 99 1015.6
20260506141921 13 132 0.0 1.6 0.00 2.26 2.26 99 1015.5
20260506141419 13 142 0.0 1.6 0.00 2.26 2.26 99 1015.0
20260506140917 13 140 0.0 1.6 0.00 2.26 2.26 99 1014.7
20260506140414 13 97 1.6 1.6 0.00 2.26 2.26 99 1014.8
20260506135911 13 130 1.6 1.6 0.00 2.26 2.26 99 1014.5
20260506135408 14 144 0.0 1.6 0.00 2.26 2.26 99 1014.5
20260506134904 14 202 0.0 1.6 0.00 2.26 2.26 99 1014.3
20260506134400 14 164 1.6 3.2 0.00 2.26 2.26 99 1013.9
20260506133857 15 146 0.0 1.6 0.00 2.26 2.26 99 1013.7
20260506133353 15 127 0.0 1.6 0.00 2.26 2.26 99 1013.8
20260506132850 15 166 0.0 0.0 0.00 2.26 2.26 99 1013.9
20260506132347 15 259 0.0 0.0 0.00 2.26 2.26 99 1013.3
20260506131846 15 101 0.0 0.0 0.00 2.26 2.26 99 1013.1
20260506131342 15 71 0.0 0.0 0.13 2.26 2.26 99 1012.9
20260506130839 15 82 0.0 0.0 0.13 2.26 2.26 99 1012.9
20260506130335 15 88 0.0 1.6 0.00 2.24 2.24 99 1013.3
20260506125833 15 91 0.0 1.6 0.00 2.24 2.24 99 1013.1
20260506125331 15 163 1.6 1.6 0.00 2.24 2.24 99 1013.8
20260506124830 15 119 0.0 0.0 0.00 2.24 2.24 99 1013.5
20260506124326 15 110 0.0 1.6 0.00 2.24 2.24 99 1013.3
20260506123824 15 95 0.0 1.6 0.00 2.24 2.24 99 1013.1
20260506123322 15 98 0.0 3.2 0.00 2.24 2.24 99 1013.3
20260506122819 15 62 1.6 3.2 0.00 2.24 2.24 99 1013.5
20260506122316 16 345 3.2 3.2 0.18 2.24 2.24 99 1013.5
20260506121814 16 133 0.0 0.0 0.13 2.21 2.21 99 1013.9
20260506121311 16 133 1.6 3.2 0.43 2.21 2.21 99 1013.2
20260506120808 17 29 1.6 4.8 0.61 2.16 2.16 99 1013.3
20260506120306 17 148 0.0 1.6 0.79 2.11 2.11 99 1013.8
20260506115803 18 123 0.0 3.2 1.50 2.06 2.06 99 1014.4
20260506115301 18 354 1.6 4.8 1.07 1.93 1.93 99 1014.8
20260506114759 18 208 0.0 3.2 0.48 1.78 1.78 99 1014.2
20260506114256 18 129 0.0 1.6 0.61 1.75 1.75 99 1014.1
20260506113754 18 171 3.2 3.2 0.43 1.70 1.70 99 1013.3
20260506113252 18 139 0.0 1.6 0.30 1.65 1.65 99 1012.7
20260506112748 18 96 0.0 1.6 0.00 1.60 1.60 99 1012.4
20260506112245 18 147 0.0 0.0 0.13 1.60 1.60 99 1012.5
20260506111743 18 162 0.0 1.6 0.13 1.60 1.60 99 1011.9
20260506111241 18 116 0.0 1.6 0.18 1.57 1.57 99 1011.7
20260506110737 18 101 0.0 0.0 0.30 1.57 1.57 99 1011.4
20260506110235 18 96 0.0 1.6 0.36 1.52 1.52 99 1011.8
20260506105731 18 125 0.0 0.0 0.66 1.52 1.52 99 1011.9
20260506105229 18 110 0.0 0.0 0.61 1.47 1.47 99 1011.7
20260506104726 18 85 3.2 3.2 0.43 1.42 1.42 99 1011.4
20260506104224 18 78 1.6 1.6 0.43 1.37 1.37 99 1011.9
20260506103721 18 112 0.0 0.0 0.48 1.35 1.35 99 1011.9
20260506103218 18 146 1.6 3.2 0.48 1.30 1.30 99 1011.8
20260506102716 18 83 0.0 0.0 0.30 1.24 1.24 99 1011.7
20260506102214 18 127 0.0 1.6 0.48 1.22 1.22 99 1012.2
20260506101710 18 125 0.0 1.6 1.27 1.19 1.19 99 1012.2
20260506101207 18 238 0.0 3.2 1.37 1.07 1.07 99 1012.4
20260506100705 18 118 0.0 0.0 1.19 0.94 0.94 99 1012.4
20260506100203 18 124 0.0 0.0 1.02 0.81 0.81 99 1012.4
20260506095701 18 135 0.0 0.0 0.89 0.71 0.71 98 1012.1
20260506095157 18 135 0.0 0.0 0.61 0.61 0.61 98 1011.9
20260506094654 18 117 0.0 0.0 0.61 0.56 0.56 98 1011.8
20260506094152 18 118 0.0 0.0 1.19 0.51 0.51 97 1011.9
20260506093651 19 111 0.0 0.0 1.27 0.41 0.41 97 1011.8
20260506093147 19 87 0.0 1.6 1.07 0.28 0.28 96 1011.6
20260506092645 19 149 0.0 1.6 0.43 0.15 0.15 96 1011.3
20260506092142 19 106 0.0 0.0 0.13 0.10 0.10 95 1011.0
20260506091640 19 134 1.6 1.6 0.18 0.08 0.08 95 1011.1
20260506091137 20 19 1.6 1.6 0.00 0.05 0.05 94 1011.1
20260506090635 20 145 0.0 1.6 0.13 0.05 0.05 93 1010.9
20260506090131 20 124 0.0 0.0 0.13 0.05 0.05 93 1011.0
20260506085629 20 111 1.6 1.6 0.00 0.03 0.03 92 1011.0
20260506085125 20 118 0.0 0.0 0.00 0.03 0.03 92 1010.8
20260506084621 20 124 0.0 1.6 0.00 0.03 0.03 92 1011.1
20260506084118 20 136 0.0 1.6 0.00 0.03 0.03 91 1011.0
20260506083615 20 120 0.0 1.6 0.00 0.03 0.03 91 1010.6
20260506083113 20 120 0.0 1.6 0.00 0.03 0.03 89 1010.7
20260506082609 20 73 0.0 3.2 0.00 0.03 0.03 90 1010.7
20260506082105 20 72 0.0 1.6 0.00 0.03 0.03 90 1010.6
20260506081603 20 150 1.6 3.2 0.18 0.03 0.03 89 1010.5
20260506081100 20 44 1.6 4.8 0.00 0.00 0.00 89 1010.4
20260506080558 20 227 3.2 4.8 0.00 0.00 0.00 88 1010.6
20260506073038 21 192 4.8 11.3 0.00 0.00 0.00 81 1010.9
20260506072535 21 126 1.6 1.6 0.00 0.00 0.00 81 1011.1
20260506072033 21 122 1.6 1.6 0.00 0.00 0.00 81 1011.0
20260506071531 21 199 3.2 4.8 0.00 0.00 0.00 81 1011.0
20260506071028 21 55 1.6 4.8 0.00 0.00 0.00 81 1010.8
20260506070525 21 180 1.6 3.2 0.00 0.00 0.00 81 1011.0
20260506062502 20 62 1.6 9.7 0.00 0.00 0.00 80 1010.4
20260506061959 20 188 1.6 3.2 0.00 0.00 0.00 80 1010.6
20260506061455 20 113 3.2 4.8 0.00 0.00 0.00 80 1010.8
20260506060953 20 89 1.6 3.2 0.00 0.00 0.00 80 1010.4
20260506060451 20 139 0.0 4.8 0.00 0.00 0.00 79 1010.6
20260506050920 20 329 1.6 3.2 0.00 0.00 0.00 77 1011.2
20260506050417 20 247 1.6 4.8 0.00 0.00 0.00 78 1011.4
20260506044908 20 55 1.6 3.2 0.00 0.08 0.08 78 1011.7
20260506044406 20 87 1.6 3.2 0.00 0.08 0.08 77 1011.8
20260506043903 20 209 1.6 4.8 0.00 0.08 0.08 77 1011.6
20260506043400 20 319 4.8 4.8 0.00 0.08 0.08 77 1011.7
20260506042858 20 73 3.2 4.8 0.00 0.08 0.08 77 1011.7
20260506042357 20 178 1.6 8.0 0.00 0.08 0.08 77 1011.8
20260506041855 20 101 1.6 1.6 0.00 0.08 0.08 76 1012.1
20260506041354 20 197 4.8 8.0 0.00 0.08 0.08 77 1012.0
20260506040849 20 251 3.2 3.2 0.00 0.08 0.08 78 1012.0
20260506040346 20 98 0.0 3.2 0.00 0.08 0.08 78 1012.1
20260506035842 20 4 3.2 3.2 0.00 0.08 0.08 76 1012.2
20260506035340 20 17 3.2 4.8 0.00 0.08 0.08 76 1012.1
20260506034837 20 216 1.6 4.8 0.00 0.08 0.08 76 1012.3
20260506034334 20 246 3.2 4.8 0.00 0.08 0.08 76 1012.3
20260506033831 20 178 4.8 8.0 0.00 0.08 0.08 76 1012.4
20260506033328 20 275 3.2 4.8 0.00 0.08 0.08 76 1012.5
20260506032825 20 19 1.6 4.8 0.00 0.08 0.08 76 1012.5
20260506032322 20 154 0.0 3.2 0.00 0.08 0.08 77 1012.4
20260506031819 20 98 1.6 3.2 0.00 0.08 0.08 77 1012.5
20260506031316 20 67 1.6 3.2 0.00 0.08 0.08 77 1012.4
20260506030814 20 170 0.0 1.6 0.00 0.08 0.08 78 1012.3
20260506030311 20 37 0.0 3.2 0.00 0.08 0.08 78 1012.3
20260506025808 20 58 3.2 3.2 0.00 0.08 0.08 78 1012.4
20260506025305 20 102 0.0 1.6 0.00 0.08 0.08 77 1012.4
20260506024802 20 87 3.2 3.2 0.00 0.08 0.08 77 1012.5
20260506024258 20 143 1.6 4.8 0.00 0.08 0.08 78 1012.4
20260506023754 20 65 1.6 4.8 0.00 0.08 0.08 77 1012.3
20260506023252 20 310 4.8 4.8 0.00 0.08 0.08 77 1012.1
20260506022748 20 58 1.6 3.2 0.00 0.08 0.08 77 1012.2
20260506022246 20 89 0.0 8.0 0.00 0.08 0.08 77 1011.9
20260506021744 20 105 0.0 4.8 0.00 0.08 0.08 79 1012.0
20260506021240 20 192 6.4 9.7 0.00 0.08 0.08 77 1011.9
20260506020737 20 288 3.2 3.2 0.00 0.08 0.08 77 1011.9
20260506020235 20 184 6.4 9.7 0.00 0.08 0.08 77 1011.9
20260506015732 20 175 0.0 3.2 0.00 0.08 0.08 78 1012.0
20260506015230 20 57 3.2 4.8 0.00 0.08 0.08 76 1012.2
20260506014727 20 345 3.2 3.2 0.00 0.08 0.08 76 1012.3
20260506014223 20 120 3.2 4.8 0.00 0.08 0.08 75 1012.0
20260506013720 21 272 3.2 12.9 0.00 0.08 0.08 75 1012.0
20260506013217 20 235 8.0 11.3 0.00 0.08 0.08 74 1012.1
20260506012713 21 45 1.6 11.3 0.00 0.08 0.08 73 1012.1
20260506012211 21 260 1.6 4.8 0.00 0.08 0.08 73 1012.0
20260506011708 21 120 6.4 14.5 0.00 0.08 0.08 72 1011.9
20260506011204 21 116 4.8 8.0 0.00 0.08 0.08 72 1012.2
20260506010702 21 126 3.2 4.8 0.00 0.08 0.08 72 1012.0